Preston, Minnesota, United States (55965)
Lat: 43.67N, Lon: 92.08W
Wx Zone: MNZ095
Local Info
Past Weather Observations for Today

NOTE: This archive is for the closest National Weather Service station to Preston. Information may differ from the station used for current weather conditions.

Click here for Long-term Archive

Time Weather Temperature Dewpoint Humidity Pressure Winds Precip Visibility
09:55
Overcast
23°F / -5°C 18°F / -8°C 80% 30.06 in
(1018 mb)
E 9.2 mph
(E 15 kph)
- 7SM
09:35
Overcast
21°F / -6°C 18°F / -8°C 86% 30.06 in
(1018 mb)
E 6.9 mph
(E 11 kph)
- 10SM
09:15
Overcast
21°F / -6°C 18°F / -8°C 86% 30.06 in
(1018 mb)
E 6.9 mph
(E 11 kph)
- 7SM
08:55
Overcast
21°F / -6°C 18°F / -8°C 86% 30.06 in
(1018 mb)
ESE 6.9 mph
(ESE 11 kph)
- 7SM
08:35
Overcast
21°F / -6°C 18°F / -8°C 86% 30.06 in
(1018 mb)
E 6.9 mph
(E 11 kph)
- 10SM
08:15
Overcast
19°F / -7°C 18°F / -8°C 93% 30.04 in
(1017 mb)
ESE 8.1 mph
(ESE 13 kph)
- 10SM
07:55
Overcast
19°F / -7°C 18°F / -8°C 93% 30.04 in
(1017 mb)
ESE 10.4 mph
(ESE 17 kph)
- 10SM
07:35
Overcast
19°F / -7°C 18°F / -8°C 93% 30.04 in
(1017 mb)
ESE 5.8 mph
(ESE 9 kph)
- 10SM
07:15
Overcast
19°F / -7°C 18°F / -8°C 93% 30.04 in
(1017 mb)
E 8.1 mph
(E 13 kph)
- 10SM
06:55
Overcast
19°F / -7°C 16°F / -9°C 86% 30.04 in
(1017 mb)
ESE 6.9 mph
(ESE 11 kph)
- 10SM
06:35
Overcast
19°F / -7°C 16°F / -9°C 86% 30.04 in
(1017 mb)
ESE 6.9 mph
(ESE 11 kph)
- 10SM
06:15
Overcast
19°F / -7°C 18°F / -8°C 93% 30.04 in
(1017 mb)
SE 6.9 mph
(SE 11 kph)
- 10SM
05:55
Overcast
19°F / -7°C 16°F / -9°C 86% 30.04 in
(1017 mb)
SE 4.6 mph
(SE 7 kph)
- 10SM
05:35
Overcast
18°F / -8°C 16°F / -9°C 93% 30.04 in
(1017 mb)
ESE 4.6 mph
(ESE 7 kph)
- 10SM
05:15
Overcast
19°F / -7°C 16°F / -9°C 86% 30.01 in
(1016 mb)
SE 4.6 mph
(SE 7 kph)
- 10SM
04:55
Overcast
19°F / -7°C 16°F / -9°C 86% 30.01 in
(1016 mb)
E 4.6 mph
(E 7 kph)
- 10SM
04:35
Overcast
19°F / -7°C 16°F / -9°C 86% 30.01 in
(1016 mb)
SE 4.6 mph
(SE 7 kph)
- 10SM
04:15
Overcast
19°F / -7°C 16°F / -9°C 86% 30.01 in
(1016 mb)
SE 5.8 mph
(SE 9 kph)
- 10SM
03:55
Overcast
19°F / -7°C 16°F / -9°C 86% 30.01 in
(1016 mb)
SE 8.1 mph
(SE 13 kph)
- 10SM
03:35
Overcast
19°F / -7°C 16°F / -9°C 86% 30.01 in
(1016 mb)
SE 5.8 mph
(SE 9 kph)
- 10SM
03:15
Overcast
19°F / -7°C 16°F / -9°C 86% 30.04 in
(1017 mb)
SE 5.8 mph
(SE 9 kph)
- 10SM
02:55
Overcast
19°F / -7°C 16°F / -9°C 86% 30.04 in
(1017 mb)
SE 5.8 mph
(SE 9 kph)
- 10SM
02:35
Overcast
18°F / -8°C 14°F / -10°C 86% 30.04 in
(1017 mb)
SE 4.6 mph
(SE 7 kph)
- 10SM
02:15
Overcast
18°F / -8°C 14°F / -10°C 86% 30.04 in
(1017 mb)
SE 4.6 mph
(SE 7 kph)
- 10SM
01:55
Mostly Cloudy
18°F / -8°C 14°F / -10°C 86% 30.04 in
(1017 mb)
SE 3.5 mph
(SE 6 kph)
- 10SM
01:35
Partly Cloudy
18°F / -8°C 14°F / -10°C 86% 30.04 in
(1017 mb)
SE 5.8 mph
(SE 9 kph)
- 10SM
01:15
Partly Cloudy
16°F / -9°C 12°F / -11°C 86% 30.04 in
(1017 mb)
SE 4.6 mph
(SE 7 kph)
- 10SM
00:55
Partly Cloudy
16°F / -9°C 12°F / -11°C 86% 30.04 in
(1017 mb)
SE 5.8 mph
(SE 9 kph)
- 10SM
00:35
Mostly Cloudy
16°F / -9°C 12°F / -11°C 86% 30.04 in
(1017 mb)
SE 4.6 mph
(SE 7 kph)
- 10SM
00:15
Overcast
16°F / -9°C 12°F / -11°C 86% 30.04 in
(1017 mb)
SE 4.6 mph
(SE 7 kph)
- 10SM
Time Weather Temperature Dewpoint Humidity Pressure Winds Precip Visibility


Weather for websites

WeatherForYou.com, LLC is not responsible for any damages or problems caused by this service. Current weather conditions are obtained from the closest station including government and personal stations which may have varying degrees of accuracy. Weather forecasts are derived from the NOAA NDFD. Like all things, this site belongs to Jesus Christ... He just trusts me to maintain it. If you have any questions or comments email webmaster@weatherforyou.com

Copyright © 2014, WeatherForYou.com LLC. All rights reserved.